COSMOS 1275 DEB, 42114

Orbit data source: Space-Track

COSMOS 1275 DEB, 42114 is space debris in LEO originally from a launch on Thu, 04 Jun 1981 UTC launched from the Plesetsk Missile And Space Complex (PKMTR). Debris objects in space refer to the collection of defunct objects orbiting the Earth. Examples of debris include non-operational satellites, rocket bodies, and fragments generated from explosions, collisions, or faulty payload assembly.

Loading next visibility...
Identifier
42114, 1981-053QA
Orbit
LEO
Country
Flag of CISCIS
Related business
Manufacturer
Unknown
Mission
Spacecraft
Bus & Motor
Unknown
Mass
Unknown
Launch date (UTC)
1981-06-04 (44 years ago)
Launch vehicle
Unknown
Launch site
Plesetsk Missile And Space Complex (PKMTR)
Object type
Payload
Rocket body
Debris
Shape & HBR
Unknown shape, 0.1 m
Radar Cross Section
Small (<0.1 m²)

Expand to show TLE details & history
Last TLE update: 22 hours ago

TLE from 22 hours ago
0 COSMOS 1275 DEB
1 42114U 81053QA  25307.74172633  .00005844  00000-0  19177-2 0  9997
2 42114  82.8115 119.2571 0036180 273.5000  98.7651 14.37864163618677
Epoch: 2025-11-03T17:48Z
TLE epoch observation values (Epoch: 2025-11-03T17:48:05.154Z)
Latitude
12.53297°
Longitude
170.59496°
Altitude
771.821 km
Speed
7.467 km/s
True Right ascension
08h 03m 25s
True Declination
12° 27' 38"
Sunlit
Object was in daylight at epoch
Visualization orbit readout
Latitude
Unknown
Longitude
Unknown
Altitude
Unknown
Speed
Unknown
Apparent Right ascension
Unknown
Apparent Declination
Unknown
Sunlit
N/A
Visualization observer readout
Local Sidereal Time
12:04:11
Azimuth
Unknown
Elevation
Unknown
Doppler factor
Unknown
Orbital elements
Apogee altitude
788.467 km
Perigee altitude
736.796 km
Semi-major axis
7,140.768 km
Eccentricity
0.00362
Inclination
82.8115°
RAAN
119.2571°
Arg. of periapsis
273.5°
True anomaly
99.17456°
Mean anomaly
98.7651°
Eccentric anomaly
98.96986°
Mean motion
3.59688 °/min
Orbital period
100.09 mins
BSTAR
0.0019177
Loading maneuver chart data...
Computing Atmospheric mass density...

Documentation

Showing up to 5 results
|